Weather in Goldino

Russia / Ryazan Oblast     54°07′00″N   39°05′12″E
temp.,
°C
wind,
m/s
gust,
m/s
humid.,
%
clouds,
%
prec.,
mm/h
press.,
hPa
HPBL,
m
14 june, mon
mon1400:00+15ssw2289100 0.0 101014
03:00+15sse229155 0.0 101135
06:00+17ssw24926 0.0 1012120
09:00+21s227765 0.0 1013492
12:00+24sw116517 0.0 10141171
15:00+25n005946 0.9 10141420
18:00+23sse227696 0.9 1014233
21:00+18sw118457 2.9 101411
15 june, tue
tue1500:00+18wnw0188100 4.1 101411
03:00+16ene119195 5.9 101411
06:00+18e008754 0.0 101443
09:00+21n1179100 0.8 1013151
12:00+24e116244 1.4 10121138
15:00+25ne115915 1.4 10111499
18:00+24ene2276100 0.9 1010238
21:00+19s1182100 1.2 101011
16 june, wed
wed1600:00+18nw118619 0.9 100911
03:00+17wnw229022 0.9 100911
06:00+18nw2391100 0.0 1010101
09:00+21nnw348147 0.0 1010461
12:00+22nnw5781100 5.0 1011604
15:00+23nnw687898 6.3 10121054
18:00+21n610774 0.4 1013686
21:00+17nne411890 0.5 1016282
17 june, thu
thu1700:00+14n410930 0.0 1017209
03:00+12n410840 0.0 1020194
06:00+13nne410820 0.0 1021259
09:00+17nne57690 0.0 1022452
12:00+20nne56590 0.0 10231044
15:00+20nne57560 0.0 10241319
18:00+20nne48700 0.0 1024561
21:00+15nne48820 0.0 1025142
18 june, fri
fri1800:00+13ne38820 0.0 1025129
03:00+12ne358636 0.0 102776
06:00+13ene258553 0.0 1028145
09:00+18ene34685 0.0 1028450
12:00+21ene45590 0.0 10281165
15:00+22ene44570 0.0 10271420
18:00+22e24695 0.0 10271053
21:00+17e117929 0.0 102711